When you browse on this site, cookies collect data to enhance your experience and personalize the content and advertising you see.
Visit our Privacy Policy to learn more. By continuing to use the site, you agree to this use of cookies and data.
  • In Austria
  • List of Countries
  • For 7 days
  • Water Temperature
  • Satellite Maps
  • Weather Map
  • News
  • Weather Widgets
  • user-avatar
    Login

    Hourly Weather Ali Sabieh

    Today, 20 January, Sunday

    Time Temperature Precipitation Wind Pressure Humidity
    00:00 +21°C° 0 mm 4 mps 700 mmHg 72%
    01:00 +20°C° 0 mm 3 mps 699 mmHg 74%
    02:00 +20°C° 0 mm 3 mps 699 mmHg 77%
    03:00 +20°C° 0 mm 3 mps 699 mmHg 80%
    04:00 +19°C° 0 mm 3 mps 699 mmHg 82%
    05:00 +19°C° 0 mm 3 mps 699 mmHg 85%
    06:00 +19°C° 0 mm 2 mps 699 mmHg 87%
    07:00 +20°C° 0 mm 3 mps 700 mmHg 80%
    08:00 +21°C° 0 mm 4 mps 701 mmHg 74%
    09:00 +22°C° 0 mm 4 mps 701 mmHg 65%
    10:00 +23°C° 0 mm 4 mps 701 mmHg 59%
    11:00 +26°C° 0 mm 5 mps 701 mmHg 53%
    12:00 +27°C° 0 mm 5 mps 701 mmHg 48%
    13:00 +28°C° 0 mm 6 mps 701 mmHg 45%
    14:00 +28°C° 0 mm 6 mps 701 mmHg 43%
    15:00 +29°C° 0 mm 6 mps 700 mmHg 40%
    16:00 +28°C° 0 mm 7 mps 700 mmHg 45%
    17:00 +27°C° 0 mm 7 mps 700 mmHg 50%
    18:00 +26°C° 0 mm 8 mps 699 mmHg 55%
    19:00 +24°C° 0 mm 7 mps 700 mmHg 60%
    20:00 +23°C° 0 mm 6 mps 700 mmHg 65%
    21:00 +22°C° 0 mm 6 mps 700 mmHg 71%
    22:00 +21°C° 0 mm 5 mps 700 mmHg 73%
    23:00 +21°C° 0 mm 5 mps 700 mmHg 75%

    Tomorrow, 21 January, Monday

    Time Temperature Precipitation Wind Pressure Humidity
    00:00 +20°C° 0 mm 5 mps 700 mmHg 77%
    01:00 +20°C° 0 mm 5 mps 700 mmHg 79%
    02:00 +20°C° 0 mm 4 mps 699 mmHg 82%
    03:00 +19°C° 0 mm 4 mps 699 mmHg 84%
    04:00 +19°C° 0 mm 4 mps 699 mmHg 86%
    05:00 +19°C° 0 mm 3 mps 700 mmHg 88%
    06:00 +19°C° 0 mm 3 mps 700 mmHg 89%
    07:00 +20°C° 0 mm 4 mps 700 mmHg 81%
    08:00 +21°C° 0 mm 4 mps 701 mmHg 72%
    09:00 +22°C° 0 mm 5 mps 702 mmHg 64%
    10:00 +23°C° 0 mm 5 mps 702 mmHg 57%
    11:00 +26°C° 0 mm 6 mps 702 mmHg 50%
    12:00 +27°C° 0 mm 6 mps 702 mmHg 43%
    13:00 +28°C° 0 mm 7 mps 701 mmHg 41%
    14:00 +28°C° 0 mm 7 mps 700 mmHg 39%
    15:00 +29°C° 0 mm 7 mps 700 mmHg 37%
    16:00 +28°C° 0 mm 7 mps 700 mmHg 43%
    17:00 +27°C° 0 mm 7 mps 700 mmHg 48%
    18:00 +26°C° 0 mm 8 mps 699 mmHg 53%
    19:00 +24°C° 0 mm 7 mps 700 mmHg 60%
    20:00 +23°C° 0 mm 6 mps 700 mmHg 66%
    21:00 +22°C° 0 mm 6 mps 700 mmHg 72%
    22:00 +22°C° 0 mm 5 mps 700 mmHg 74%
    23:00 +21°C° 0 mm 5 mps 699 mmHg 76%

    Day after tomorrow, 22 January, Tuesday

    Time Temperature Precipitation Wind Pressure Humidity
    00:00 +21°C° 0 mm 4 mps 699 mmHg 79%
    01:00 +20°C° 0 mm 4 mps 699 mmHg 81%
    02:00 +20°C° 0 mm 4 mps 698 mmHg 82%
    03:00 +20°C° 0 mm 3 mps 698 mmHg 84%
    04:00 +20°C° 0 mm 3 mps 698 mmHg 86%
    05:00 +19°C° 0 mm 3 mps 698 mmHg 88%
    06:00 +19°C° 0 mm 3 mps 699 mmHg 90%
    07:00 +20°C° 0 mm 3 mps 699 mmHg 84%
    08:00 +21°C° 0 mm 4 mps 700 mmHg 78%
    09:00 +22°C° 0 mm 4 mps 701 mmHg 72%
    10:00 +25°C° 0 mm 5 mps 701 mmHg 64%
    11:00 +27°C° 0 mm 5 mps 700 mmHg 56%
    12:00 +28°C° 0 mm 5 mps 700 mmHg 49%
    13:00 +29°C° 0 mm 6 mps 700 mmHg 46%
    14:00 +29°C° 0 mm 6 mps 699 mmHg 44%
    15:00 +30°C° 0 mm 6 mps 698 mmHg 42%
    16:00 +29°C° 0 mm 7 mps 698 mmHg 49%
    17:00 +27°C° 0 mm 7 mps 698 mmHg 56%
    18:00 +26°C° 0 mm 7 mps 698 mmHg 63%
    19:00 +24°C° 0 mm 7 mps 698 mmHg 68%
    20:00 +23°C° 0 mm 7 mps 698 mmHg 74%
    21:00 +22°C° 0 mm 6 mps 699 mmHg 79%
    22:00 +22°C° 0 mm 6 mps 699 mmHg 80%
    23:00 +21°C° 0 mm 6 mps 698 mmHg 80%

    23 January, Wednesday

    Time Temperature Precipitation Wind Pressure Humidity
    00:00 +21°C° 0 mm 5 mps 698 mmHg 81%
    01:00 +21°C° 0 mm 5 mps 698 mmHg 82%
    02:00 +20°C° 0 mm 4 mps 697 mmHg 83%
    03:00 +20°C° 0 mm 4 mps 697 mmHg 84%
    04:00 +20°C° 0 mm 4 mps 697 mmHg 85%
    05:00 +20°C° 0 mm 4 mps 698 mmHg 86%
    06:00 +20°C° 0 mm 4 mps 698 mmHg 87%
    07:00 +20°C° 0 mm 4 mps 699 mmHg 82%
    08:00 +21°C° 0 mm 5 mps 699 mmHg 76%
    09:00 +22°C° 0 mm 6 mps 700 mmHg 71%
    10:00 +24°C° 0 mm 6 mps 700 mmHg 63%
    11:00 +26°C° 0 mm 7 mps 700 mmHg 55%
    12:00 +28°C° 0 mm 7 mps 700 mmHg 48%
    13:00 +28°C° 0 mm 7 mps 699 mmHg 47%
    14:00 +28°C° 0 mm 8 mps 698 mmHg 46%
    15:00 +29°C° 0 mm 8 mps 698 mmHg 44%
    16:00 +27°C° 0 mm 8 mps 698 mmHg 51%
    17:00 +26°C° 0 mm 8 mps 698 mmHg 57%
    18:00 +24°C° 0 mm 8 mps 698 mmHg 63%
    19:00 +23°C° 0 mm 7 mps 698 mmHg 68%
    20:00 +22°C° 0 mm 7 mps 699 mmHg 74%
    21:00 +21°C° 0 mm 6 mps 699 mmHg 79%
    22:00 +21°C° 0 mm 6 mps 699 mmHg 80%
    23:00 +21°C° 0 mm 5 mps 699 mmHg 81%

    24 January, Thursday

    Time Temperature Precipitation Wind Pressure Humidity
    00:00 +21°C° 0 mm 5 mps 699 mmHg 81%
    01:00 +20°C° 0 mm 5 mps 699 mmHg 82%
    02:00 +20°C° 0 mm 4 mps 698 mmHg 83%
    03:00 +20°C° 0 mm 4 mps 698 mmHg 85%
    04:00 +20°C° 0 mm 4 mps 698 mmHg 85%
    05:00 +20°C° 0 mm 4 mps 698 mmHg 86%
    06:00 +19°C° 0 mm 4 mps 699 mmHg 86%
    07:00 +20°C° 0 mm 5 mps 699 mmHg 81%
    08:00 +21°C° 0 mm 5 mps 700 mmHg 75%
    09:00 +22°C° 0 mm 6 mps 701 mmHg 70%
    10:00 +23°C° 0 mm 6 mps 701 mmHg 64%
    11:00 +26°C° 0 mm 6 mps 700 mmHg 57%
    12:00 +27°C° 0 mm 7 mps 700 mmHg 51%
    13:00 +27°C° 0 mm 7 mps 700 mmHg 49%
    14:00 +28°C° 0 mm 7 mps 699 mmHg 48%
    15:00 +28°C° 0 mm 8 mps 698 mmHg 46%
    16:00 +27°C° 0 mm 7 mps 698 mmHg 52%
    17:00 +26°C° 0 mm 7 mps 698 mmHg 59%
    18:00 +24°C° 0 mm 7 mps 698 mmHg 65%
    19:00 +23°C° 0 mm 7 mps 699 mmHg 70%
    20:00 +22°C° 0 mm 6 mps 699 mmHg 75%
    21:00 +22°C° 0 mm 6 mps 700 mmHg 80%
    22:00 +22°C° 0 mm 6 mps 700 mmHg 81%
    23:00 +21°C° 0 mm 6 mps 700 mmHg 82%

    25 January, Friday

    Time Temperature Precipitation Wind Pressure Humidity
    00:00 +21°C° 0 mm 6 mps 699 mmHg 82%
    01:00 +21°C° 0 mm 6 mps 699 mmHg 83%
    02:00 +21°C° 0 mm 6 mps 699 mmHg 84%
    03:00 +21°C° 0 mm 6 mps 699 mmHg 85%
    04:00 +21°C° 0 mm 6 mps 699 mmHg 85%
    05:00 +21°C° 0 mm 6 mps 699 mmHg 84%
    06:00 +21°C° 0 mm 6 mps 699 mmHg 84%
    07:00 +21°C° 0 mm 7 mps 700 mmHg 82%
    08:00 +22°C° 0 mm 7 mps 700 mmHg 79%
    09:00 +22°C° 0 mm 7 mps 701 mmHg 76%
    10:00 +23°C° 0 mm 8 mps 701 mmHg 69%
    11:00 +24°C° 0 mm 8 mps 701 mmHg 63%
    12:00 +27°C° 0 mm 9 mps 700 mmHg 56%
    13:00 +27°C° 0 mm 9 mps 700 mmHg 53%
    14:00 +28°C° 0 mm 9 mps 699 mmHg 50%
    15:00 +28°C° 0 mm 9 mps 699 mmHg 47%
    16:00 +27°C° 0 mm 9 mps 699 mmHg 53%
    17:00 +26°C° 0 mm 8 mps 699 mmHg 59%
    18:00 +24°C° 0 mm 8 mps 699 mmHg 65%
    19:00 +23°C° 0 mm 7 mps 700 mmHg 69%
    20:00 +22°C° 0 mm 6 mps 700 mmHg 74%
    21:00 +22°C° 0 mm 5 mps 700 mmHg 78%
    22:00 +21°C° 0 mm 5 mps 700 mmHg 80%
    23:00 +21°C° 0 mm 6 mps 700 mmHg 82%
    Show more